GFSSE_sfc_temp_057.txt.gz
Temp
81 79 74 76 77 77 75 76 77 76 76 76 77 76 76 76 76 76 76 77 77 78 78 77 77 76 75 75 75 74 74 74 75 75 75 75 75 75 76 75 75 75 75
85 81 73 75 77 77 76 75 76 76 76 76 77 77 76 76 76 76 76 76 77 77 77 77 76 75 74 74 73 74 74 74 74 74 74 74 74 75 75 75 75 75 76
84 84 79 74 76 76 75 75 75 76 76 76 76 76 76 76 76 76 76 76 77 77 77 76 75 74 73 73 73 73 74 74 74 74 75 78 76 75 75 74 74 75 75
85 85 83 73 75 75 75 75 76 76 76 76 76 76 76 76 76 76 76 76 76 76 76 75 75 73 73 73 73 73 74 74 74 75 79 78 78 75 75 74 74 74 74
85 84 81 73 75 75 75 75 75 76 76 76 76 75 75 75 75 75 75 76 75 75 75 74 73 73 72 72 72 73 74 74 74 77 76 74 74 75 75 74 74 73 73
85 85 74 74 75 75 75 75 75 76 76 76 75 75 75 75 75 74 74 75 75 74 74 73 73 72 72 72 72 72 72 74 75 79 77 76 75 75 74 73 73 72 72
85 85 79 73 74 74 75 75 75 76 76 75 75 75 74 74 74 74 74 74 73 73 73 72 72 71 71 70 71 71 71 72 77 75 74 73 73 73 74 73 72 71 72
84 83 81 71 71 72 74 74 75 75 75 75 74 74 74 74 74 74 73 73 73 72 72 71 71 70 69 69 69 70 69 71 75 73 74 73 72 74 74 73 71 70 70
85 82 79 80 75 68 70 72 73 73 74 74 74 73 73 72 72 72 72 72 72 72 71 70 69 69 68 68 69 68 68 69 76 75 75 74 72 74 74 72 70 69 69
83 81 78 79 79 79 77 68 69 71 71 71 71 69 68 68 69 69 68 70 71 70 70 69 68 67 67 67 67 67 67 68 72 72 73 72 71 72 72 71 70 69 68
81 80 80 79 80 79 78 74 67 67 68 68 67 65 66 74 74 73 67 68 69 69 68 68 66 64 64 64 65 66 68 71 69 69 68 68 71 72 71 70 69 68 68
72 78 82 81 80 80 78 76 78 77 76 76 75 73 76 76 76 73 65 64 66 66 66 66 66 65 67 70 69 68 72 69 69 68 69 69 71 71 71 69 68 68 67
72 73 75 75 79 79 78 78 78 78 78 76 75 76 75 75 72 72 69 68 66 64 67 67 68 70 69 69 68 69 70 69 67 65 63 67 70 71 70 69 68 68 66
76 76 74 74 76 78 79 78 79 77 77 76 75 75 75 71 71 72 70 67 67 68 67 68 67 66 66 66 66 67 68 68 67 65 63 61 68 70 69 68 68 66 66
78 77 71 73 77 78 74 72 76 79 78 78 77 76 75 71 70 69 67 64 64 64 65 67 66 65 64 64 64 64 64 66 65 65 64 58 65 68 68 68 67 66 65
79 78 75 71 76 79 78 77 73 75 79 78 77 76 75 73 68 66 63 64 63 63 64 66 65 64 63 62 62 62 62 63 63 63 63 60 61 64 65 66 66 65 64
79 78 76 73 72 75 77 78 78 77 74 76 78 77 76 73 69 67 63 62 62 61 60 60 60 62 61 62 60 60 60 60 60 61 62 61 59 59 62 63 63 63 63
79 77 77 75 74 74 75 76 77 78 79 77 77 78 76 74 68 64 62 60 59 59 60 54 54 56 57 59 59 59 58 58 58 58 59 60 59 58 58 59 60 61 61
79 77 76 74 72 72 73 75 75 76 74 75 76 76 75 74 68 65 63 59 58 59 55 54 53 56 55 56 57 57 57 56 56 57 55 55 55 55 54 54 55 57 58
79 78 76 73 71 71 72 71 73 73 74 73 75 74 74 71 68 64 62 58 57 56 56 53 53 55 54 54 56 55 55 55 55 54 53 54 53 53 53 52 51 52 55
76 75 75 72 71 71 69 67 67 67 70 68 68 71 72 70 67 63 61 58 57 56 55 53 53 51 52 54 50 51 52 53 53 53 53 52 51 51 50 50 49 49 50
74 73 73 72 71 70 70 69 69 68 69 68 63 62 67 65 64 61 59 57 57 55 54 52 52 49 52 53 49 50 44 47 50 51 51 51 49 49 48 49 48 48 48
71 71 71 71 71 70 70 70 68 68 65 61 59 58 58 59 58 57 58 57 55 54 51 51 50 50 48 51 53 54 46 46 45 47 47 48 48 47 47 47 47 47 47
72 72 71 71 70 70 69 68 65 61 58 60 60 58 55 54 54 55 55 54 54 54 50 49 51 52 50 48 52 55 51 50 44 38 44 45 47 47 46 46 45 45 46
72 70 70 70 69 69 68 67 65 61 63 65 62 56 55 52 51 51 52 53 52 53 52 51 50 52 52 51 50 49 48 50 51 47 40 41 44 46 47 46 45 44 44
71 68 67 67 67 68 66 66 65 62 63 63 58 56 53 51 49 49 49 50 51 50 50 49 49 50 50 52 51 50 49 48 46 49 45 41 40 43 45 45 43 45 44

GFSSE_sfc_temp_060.txt.gz
Temp
71 74 74 76 76 74 75 76 76 76 76 77 77 77 77 76 76 76 77 77 77 77 77 77 76 76 76 75 75 75 75 75 74 74 75 75 76 76 76 75 75 74 76
75 76 73 75 77 76 76 75 76 76 76 77 77 77 76 76 76 76 76 76 77 77 77 76 76 75 74 74 75 75 75 74 74 74 73 74 75 75 75 75 75 75 76
77 78 74 74 76 75 75 75 76 76 76 76 76 76 76 76 76 76 76 76 76 77 76 76 75 74 74 74 75 75 75 75 75 74 73 71 72 75 75 74 75 76 76
80 78 77 73 75 75 75 75 76 76 76 76 76 76 76 76 76 76 76 76 76 76 76 75 74 74 73 74 74 75 75 74 73 72 72 72 74 75 75 75 75 75 75
80 79 76 73 75 75 75 74 75 75 76 76 76 76 76 76 75 76 75 75 75 75 75 74 74 73 73 74 74 74 75 74 72 72 70 68 70 75 75 74 73 73 73
80 78 72 74 75 75 74 75 75 75 76 76 75 75 75 75 75 75 75 74 74 74 74 73 73 72 72 72 73 73 75 74 72 69 69 71 72 75 74 73 72 72 71
79 76 74 73 74 74 75 75 75 75 76 75 75 75 75 74 74 74 74 73 73 73 73 72 72 71 71 71 72 73 72 71 70 70 70 70 71 74 73 72 72 71 71
77 76 74 70 71 72 74 74 74 75 74 74 74 74 74 74 74 73 73 73 72 72 72 71 70 70 70 71 71 71 71 70 71 70 69 70 72 73 72 71 71 70 70
79 76 73 72 71 68 70 71 72 73 73 73 73 73 72 72 72 72 72 72 72 71 71 70 69 70 70 70 70 68 67 68 65 66 70 68 71 73 72 70 70 70 69
75 75 73 73 72 71 69 68 69 70 71 71 70 68 68 68 68 68 68 70 71 70 70 69 68 69 68 68 68 67 66 66 63 64 64 68 71 72 70 69 70 69 68
73 74 74 74 73 72 71 68 66 67 68 67 66 65 65 66 67 67 66 68 69 69 69 67 67 67 66 66 67 66 66 67 66 65 63 68 71 71 70 70 69 68 67
68 72 74 74 74 75 76 68 69 70 68 69 68 66 68 67 67 66 62 64 66 66 67 67 67 66 64 61 61 64 65 64 61 61 63 68 70 70 69 69 68 67 67
66 69 73 74 74 73 72 71 72 70 69 69 69 67 69 67 64 62 59 59 58 60 60 62 61 60 61 59 59 59 60 58 60 61 62 68 70 69 69 69 67 67 66
67 68 69 70 70 73 72 72 70 71 69 69 69 69 69 67 64 62 60 58 58 61 57 57 57 58 58 59 59 59 59 60 61 61 59 61 68 68 70 68 67 66 65
68 69 71 70 68 73 72 69 69 72 70 68 68 69 69 66 64 64 61 59 61 61 62 58 56 56 56 57 57 57 56 59 60 59 54 59 65 68 68 68 67 66 65
71 70 70 69 72 74 71 67 66 67 69 70 69 69 67 67 65 64 62 60 60 61 61 61 60 56 54 54 55 56 55 54 56 54 53 53 61 65 67 67 66 66 65
72 71 69 67 68 68 69 69 69 66 68 67 67 69 69 67 64 63 60 60 58 58 59 60 57 57 55 54 52 53 52 53 52 53 52 51 51 58 63 64 64 64 64
70 69 70 70 68 68 67 67 69 69 68 66 66 67 68 68 65 62 61 59 57 58 57 55 54 52 53 50 49 48 48 49 50 50 50 50 49 49 55 61 62 62 62
70 69 68 68 67 67 67 66 66 67 66 68 67 68 67 67 66 63 61 59 57 56 55 54 52 54 52 51 49 46 46 45 47 50 47 47 48 46 45 54 55 58 60
68 68 69 67 66 65 65 63 63 63 63 65 68 70 68 66 66 64 61 56 57 55 53 52 51 51 51 51 53 48 44 44 44 43 44 47 45 45 44 45 44 48 56
65 66 68 65 64 65 62 61 58 60 59 61 69 66 67 66 65 63 61 57 56 54 53 52 51 49 49 51 46 45 43 44 43 42 42 41 43 43 44 43 43 44 46
65 63 64 66 64 65 64 63 59 57 57 59 59 59 62 64 64 62 60 57 56 54 52 51 50 48 48 49 44 44 38 39 41 43 41 43 41 43 43 44 43 43 41
62 61 63 65 65 64 63 60 57 56 55 55 54 58 57 59 60 61 59 57 56 55 52 51 50 50 47 47 47 47 38 36 36 39 41 41 40 39 40 41 42 43 41
63 60 62 62 61 62 61 60 58 58 54 52 52 53 56 56 57 58 58 57 56 55 53 51 52 52 48 47 48 50 47 41 36 31 36 37 39 40 38 38 39 40 41
60 58 58 59 60 60 62 61 58 54 53 51 51 51 54 54 55 55 56 55 55 54 53 51 50 50 50 48 48 45 43 44 41 35 29 32 34 37 37 38 37 38 41
58 57 56 57 57 58 58 59 56 54 52 51 50 51 52 52 52 52 52 53 54 53 51 50 50 51 50 49 49 48 46 43 39 38 32 30 32 34 36 37 37 38 38

GFSSE_sfc_temp_063.txt.gz
Temp
68 71 74 75 75 75 77 77 76 76 77 77 77 76 76 76 77 76 76 77 77 77 77 77 76 76 76 76 76 75 75 74 74 75 75 76 75 76 76 75 75 74 76
72 73 73 76 76 76 76 76 76 76 77 77 77 77 76 76 76 76 76 76 76 77 77 76 75 75 76 75 75 75 75 74 73 72 73 74 75 76 76 76 75 75 76
73 74 73 74 76 76 75 75 75 76 76 76 76 76 76 76 76 76 76 76 77 76 76 75 75 75 75 75 75 75 75 74 73 72 72 71 74 75 76 75 74 75 76
75 74 73 73 75 75 75 75 75 76 76 76 76 76 76 76 76 76 76 76 76 76 75 75 75 75 75 74 75 75 74 73 72 71 70 72 74 75 75 75 75 74 74
75 75 74 73 75 75 75 75 75 75 76 76 76 76 76 76 76 75 75 75 75 75 75 75 74 74 73 73 74 75 74 72 70 69 67 67 72 75 74 73 73 72 72
74 76 72 73 75 75 74 75 75 75 76 75 75 76 75 75 75 75 74 74 74 74 74 74 73 73 72 73 75 73 72 71 69 66 69 71 72 74 74 73 72 71 71
74 73 73 73 74 74 74 75 75 75 75 75 75 75 75 75 74 74 73 73 73 73 73 72 72 72 72 73 74 72 71 70 70 69 69 70 71 73 73 72 71 70 70
71 72 72 70 71 72 73 74 74 75 74 74 74 74 74 74 74 73 73 73 72 72 72 71 71 72 72 71 71 71 69 69 69 68 69 69 71 72 71 70 69 70 70
73 72 70 70 70 69 70 71 72 73 73 73 73 73 72 72 72 72 72 72 72 71 71 71 71 70 71 70 69 68 66 65 62 63 67 68 70 72 71 71 70 69 69
71 71 68 68 69 69 69 67 69 70 70 71 70 68 67 68 68 68 68 70 71 70 70 70 69 69 70 69 68 66 65 64 61 61 62 68 70 71 71 70 69 68 68
71 70 69 68 68 68 68 67 66 67 67 67 66 64 64 64 64 65 65 68 70 69 69 68 68 68 66 66 66 65 64 61 59 60 62 68 70 71 70 69 68 67 67
67 69 71 69 68 68 71 66 67 68 67 66 65 64 65 63 63 64 62 64 66 66 67 68 68 65 61 58 58 63 62 60 57 59 66 68 70 70 69 69 68 67 66
64 67 71 72 72 70 69 67 67 67 66 65 65 64 64 63 61 60 58 58 57 59 60 60 58 58 58 57 57 58 61 56 56 59 62 67 69 69 69 68 67 66 66
65 64 68 72 72 71 70 70 69 67 66 66 66 65 64 61 60 57 58 56 56 55 55 55 54 55 56 57 57 56 56 57 58 58 59 63 67 68 69 68 67 66 65
63 65 65 66 67 70 70 70 70 67 67 67 67 68 65 65 62 59 56 56 55 56 55 54 54 54 54 55 55 55 55 58 58 56 57 59 65 68 68 68 67 66 65
65 65 65 65 66 67 71 70 69 68 70 67 67 67 68 67 64 60 59 58 56 61 60 59 57 53 56 53 53 53 52 56 57 55 53 54 62 66 67 67 67 66 65
67 67 67 67 67 67 66 68 69 66 66 67 67 67 68 66 65 61 60 60 60 59 58 59 57 54 51 55 50 51 50 51 55 54 50 49 51 58 64 66 66 65 64
68 66 67 69 68 69 65 69 69 66 64 67 68 67 67 67 65 61 59 57 57 57 56 58 56 52 51 49 51 49 47 48 48 49 48 48 47 48 55 63 63 63 63
68 67 67 67 66 67 65 66 65 65 65 65 64 66 66 66 65 63 59 56 57 56 56 56 54 54 51 49 50 48 45 44 45 47 45 46 46 44 44 53 56 60 61
65 67 66 66 65 66 67 61 61 61 62 63 66 65 65 66 64 64 60 56 57 56 53 54 53 52 51 50 52 46 46 44 42 41 42 45 43 43 43 43 43 47 58
62 62 63 63 63 64 64 63 59 62 59 59 61 63 64 65 64 63 60 57 57 55 52 54 52 51 48 50 46 41 45 45 41 40 40 40 41 42 41 42 41 42 45
64 65 64 63 62 64 64 64 64 58 56 59 59 60 61 63 64 63 60 57 56 55 53 51 52 49 48 50 44 42 39 42 39 40 38 40 38 40 40 42 41 41 40
59 61 63 64 62 64 63 57 54 55 53 54 54 58 58 59 62 63 60 58 56 56 52 51 50 51 47 48 48 46 38 37 35 41 40 37 37 36 37 39 40 40 40
63 64 62 61 60 62 58 59 58 60 57 60 58 55 55 56 57 61 60 58 56 55 53 51 50 52 50 46 46 48 47 43 39 35 38 35 37 37 35 35 37 39 39
56 55 55 56 57 60 60 60 58 57 53 50 50 51 51 51 53 55 58 57 56 55 54 52 50 52 51 48 48 45 43 42 41 36 32 35 35 34 36 37 36 35 38
53 53 53 55 55 54 56 54 56 56 50 49 48 49 49 50 50 51 54 56 56 55 54 53 52 51 51 51 49 48 46 44 42 36 34 34 36 35 34 35 36 36 35

GFSSE_sfc_temp_069.txt.gz
Temp
63 67 74 75 76 77 77 76 76 76 76 77 77 76 76 76 76 76 76 76 77 77 77 76 77 76 75 75 74 75 74 74 74 75 75 75 75 76 76 75 74 72 76
67 69 73 74 75 77 76 76 76 76 76 76 76 76 76 76 76 76 76 76 76 76 77 76 76 75 75 74 74 74 74 73 73 73 74 74 76 76 76 76 76 75 76
69 71 72 74 75 76 75 75 75 76 76 76 76 76 76 76 76 76 76 75 75 76 76 76 76 75 74 74 74 74 73 73 73 73 72 72 74 75 76 75 75 75 75
70 71 71 72 75 75 75 75 75 75 76 76 76 76 76 76 76 76 75 75 75 76 76 76 75 75 74 74 73 73 73 72 71 70 71 71 73 75 75 74 74 74 74
70 71 71 72 74 75 74 75 75 75 75 76 76 76 76 76 75 75 75 75 75 76 76 75 74 74 74 73 73 73 72 72 70 70 69 69 70 74 73 72 72 72 72
69 70 70 73 74 74 74 75 75 75 75 75 76 76 75 75 75 74 74 74 74 75 75 74 75 74 73 73 73 72 72 71 68 65 66 69 68 73 73 72 71 71 70
67 69 70 72 73 74 74 74 74 75 75 75 75 75 75 74 74 73 73 74 73 74 74 73 74 73 73 73 72 71 70 69 66 66 64 65 68 72 72 71 71 70 71
68 68 70 69 70 72 73 73 74 74 74 74 74 74 74 74 73 73 73 73 73 73 73 72 73 72 72 71 70 69 68 68 68 66 62 67 70 71 71 71 71 70 70
68 68 68 69 69 68 70 70 71 72 73 73 73 73 72 72 72 72 71 72 72 73 72 71 71 71 71 70 69 67 65 65 65 65 64 67 70 71 70 70 70 70 69
67 68 67 67 68 68 68 66 68 69 70 70 70 68 67 68 68 68 68 70 71 72 71 70 70 70 69 68 66 64 63 63 59 60 60 66 69 70 70 70 69 69 68
65 66 66 67 67 67 67 65 65 66 67 66 65 64 62 62 62 63 64 68 70 70 69 69 68 67 65 64 64 62 60 58 58 58 61 67 69 69 70 69 68 68 68
64 64 66 66 66 66 68 65 65 65 64 63 62 61 61 60 60 62 61 64 66 67 68 68 66 63 59 56 56 59 56 57 59 61 65 67 69 69 69 68 68 67 67
63 64 65 65 66 66 66 66 65 64 62 61 61 60 60 59 58 58 58 58 59 60 58 58 57 55 55 54 54 54 55 56 58 60 64 66 68 69 69 68 68 67 66
61 63 64 65 65 66 65 67 67 66 63 60 60 60 58 56 56 55 55 56 56 55 54 53 53 54 54 54 54 54 54 59 56 59 61 63 67 68 68 68 67 66 66
61 63 64 65 65 66 65 66 67 67 66 62 60 60 59 57 55 55 54 54 54 54 53 52 52 53 53 53 53 53 53 58 57 56 59 60 65 67 67 67 67 66 66
63 62 64 65 65 66 65 66 67 68 67 64 62 61 60 59 57 55 54 54 55 55 52 52 52 51 51 51 51 52 51 54 56 56 57 59 63 66 67 67 67 66 66
64 64 63 64 65 65 65 65 65 66 67 65 64 62 61 60 58 57 57 57 58 57 56 55 55 53 49 53 51 50 50 51 51 54 55 56 59 62 65 66 66 66 66
62 62 64 65 64 65 65 65 66 66 66 66 66 65 63 64 63 60 59 59 58 57 56 55 54 52 51 49 50 50 50 51 51 52 52 53 53 54 57 65 66 66 65
62 62 63 63 64 64 64 65 65 64 64 65 66 66 64 65 63 60 59 59 57 57 56 54 52 53 50 49 50 49 49 49 49 50 50 48 51 50 47 56 61 63 64
60 62 64 64 64 64 65 63 62 62 63 63 64 66 65 65 64 61 60 58 58 57 56 54 53 51 50 49 51 48 47 46 46 43 47 48 46 49 48 46 47 50 61
57 58 61 62 64 64 63 62 62 62 62 61 63 63 65 66 64 62 61 58 57 56 56 53 51 50 47 47 45 45 42 45 45 42 44 45 45 44 46 44 43 44 50
59 60 60 62 63 63 66 65 65 64 63 61 59 60 63 65 65 63 61 58 57 56 55 52 50 46 46 48 45 44 41 41 41 45 40 41 43 43 43 44 43 43 43
52 56 60 62 62 64 65 60 55 54 53 54 55 57 59 63 64 64 62 59 57 57 54 52 52 52 46 46 46 46 37 39 36 38 40 39 42 38 42 42 41 42 44
53 53 57 59 61 62 63 60 60 61 60 60 61 56 57 59 61 63 63 60 58 57 56 53 54 53 51 45 47 48 44 43 40 37 35 40 39 40 40 40 43 43 42
52 50 52 55 58 59 60 61 59 59 58 55 53 54 54 54 59 62 62 60 58 57 57 54 52 52 53 51 47 44 47 42 42 39 39 33 38 38 42 42 42 42 42
48 47 49 53 53 55 56 56 57 58 54 50 50 50 51 51 53 56 60 60 59 57 56 54 53 52 52 52 50 51 48 45 43 38 36 34 32 38 39 40 39 40 42

GFSSE_sfc_temp_072.txt.gz
Temp
63 68 74 76 77 77 77 77 76 76 77 77 76 76 76 76 76 76 76 76 77 77 78 77 76 76 75 75 75 75 75 75 74 75 75 76 77 76 76 75 73 72 76
66 69 73 75 77 77 76 76 76 76 76 76 76 76 76 76 76 76 76 76 77 76 77 76 76 75 74 74 73 74 74 74 74 74 74 74 75 77 77 76 75 75 76
67 70 72 74 76 76 75 75 76 76 76 76 76 76 76 76 76 76 75 76 76 76 77 76 75 75 74 74 74 74 74 74 73 73 73 71 71 75 75 74 75 75 75
69 70 71 72 75 75 75 75 75 76 76 76 76 76 76 76 76 76 75 75 76 76 76 76 75 74 74 74 73 73 74 74 71 70 69 70 73 74 75 75 74 74 74
68 69 70 72 75 75 75 75 75 75 76 76 76 76 76 75 75 75 75 75 76 75 76 75 75 74 74 73 73 73 74 71 69 69 69 68 70 73 73 72 72 72 71
67 69 70 73 74 74 74 75 75 75 75 76 76 76 75 75 74 74 74 75 75 75 75 75 74 74 73 73 74 73 71 69 67 66 63 69 69 73 73 72 71 71 70
66 68 69 72 73 74 74 74 75 75 75 75 75 75 74 74 74 74 74 74 74 73 74 75 74 73 73 72 72 71 70 68 66 62 62 64 69 72 72 72 72 71 71
67 68 69 69 70 72 73 73 74 74 74 74 74 74 74 74 73 73 73 73 74 73 74 73 73 72 72 71 70 69 68 67 64 61 61 67 70 72 71 71 70 70 70
67 67 67 68 69 68 70 70 71 72 73 73 73 73 72 72 72 72 72 72 73 73 73 72 71 71 70 69 68 67 65 65 63 62 63 66 70 71 70 70 70 70 70
66 67 66 67 68 67 67 66 68 69 70 70 69 68 67 68 68 68 67 70 72 72 71 71 70 70 69 67 66 65 64 63 58 58 59 66 69 70 70 70 70 69 69
64 65 65 66 66 66 66 65 65 66 66 66 65 64 62 61 62 63 64 68 70 70 70 69 69 67 65 64 64 63 62 57 58 58 60 67 69 70 69 69 69 68 68
65 64 65 65 66 65 67 65 65 64 63 63 62 61 60 59 59 61 61 64 67 67 68 68 66 63 59 55 56 59 57 57 57 58 64 67 69 69 69 68 68 68 67
66 65 64 65 66 67 67 66 64 63 61 60 60 60 59 58 57 58 58 58 59 59 58 59 56 55 55 54 54 55 56 56 56 60 64 66 68 68 68 68 68 67 67
61 63 63 64 66 67 68 67 67 65 61 59 59 59 57 56 55 55 56 56 56 55 53 53 53 53 54 54 54 54 55 58 57 57 62 63 67 69 68 68 67 67 67
61 61 62 64 66 67 66 67 67 67 63 60 59 59 58 56 55 55 55 55 55 54 53 52 52 52 52 53 53 53 54 56 59 57 60 60 65 68 68 68 67 67 66
62 62 62 63 64 67 67 67 67 67 66 61 59 59 58 57 55 54 54 54 54 53 53 52 52 51 51 51 51 52 52 54 55 55 55 57 63 66 68 68 67 67 66
61 62 62 63 64 64 66 67 68 67 66 65 60 59 59 58 56 55 54 56 55 57 56 55 54 54 51 52 52 52 51 51 52 54 55 54 58 62 65 68 67 67 67
60 61 62 64 63 63 64 65 67 68 67 66 64 61 62 62 60 58 58 58 57 56 56 55 54 52 52 52 52 52 51 52 53 53 53 52 52 55 62 65 66 66 67
60 60 61 63 63 63 63 64 64 64 66 66 66 63 63 63 62 60 59 58 57 56 56 54 52 53 51 50 51 50 50 50 51 51 51 51 49 50 52 59 62 63 66
58 60 62 62 63 63 63 62 62 61 64 63 65 65 62 64 63 61 59 58 57 56 55 54 53 50 51 50 51 49 47 47 47 47 48 49 49 48 50 51 51 52 61
56 57 60 61 62 63 62 62 63 62 63 62 62 63 65 63 63 61 60 58 57 56 56 55 51 50 47 47 47 46 46 46 46 46 47 44 44 46 45 46 50 49 52
56 58 59 61 62 63 64 64 62 64 64 63 62 62 64 64 64 61 61 58 57 57 55 53 52 47 47 48 45 42 43 44 45 46 42 44 46 42 43 44 46 48 49
50 52 57 60 61 63 65 59 56 57 56 57 57 60 62 64 64 63 62 61 57 58 56 54 54 52 48 45 47 47 39 40 38 42 44 45 43 44 45 43 43 45 46
51 49 53 56 58 60 61 60 60 62 62 62 61 58 57 60 63 64 63 61 59 58 57 55 54 54 53 46 46 48 46 45 43 41 39 39 44 42 44 44 43 45 44
47 47 48 52 55 57 60 61 59 58 58 55 54 55 54 54 59 61 63 61 59 58 58 56 53 52 53 51 47 43 46 44 42 40 45 43 37 39 45 43 44 43 43
46 46 48 50 52 55 57 56 57 57 55 52 51 51 52 52 53 55 60 61 60 59 58 57 54 53 53 53 52 51 48 43 43 42 40 43 41 38 41 42 41 43 42